This demonstration page uses our WeatherBlox Daily Observations layout. Learn more.

39.92423, -83.80882

Hourly Observations for December 25, 2017

Temp ( °F °C ) Dew Point ( °F °C ) Humidity (%) Winds ( mph kmh ) Pressure ( in mb ) Visibility ( mi km ) Precip ( " mm )
12:07 am 00:07 Windy with Snow Likely 19 -7 16 -9 86 86 W 24 39 30.12 1020 6 9.65604 0 0.0254
12:56 am 00:56 Windy with Snow Likely 19 -7.2 15 -9.4 84 84 W 24 39 30.09 1019 4 6.43736 0 0.0254
1:56 am 01:56 Windy with Snow Likely 19 -7.2 14 -10 81 81 W 23 37 30.12 1020 8 12.87472 0 0.0254
2:56 am 02:56 Windy with Snow Likely 19 -7.2 14 -10 81 81 W 21 33 30.16 1022 9 14.48406 0 0.0254
3:54 am 03:54 Cloudy 19 -7 12 -11 73 73 W 22 35 30.24 1024 10 16.0934 0 0.0254
3:56 am 03:56 Cloudy 20 -6.7 13 -10.6 74 74 W 23 37 30.19 1022 10 16.0934 0 0.0254
4:56 am 04:56 Windy with Snow Likely 20 -6.7 12 -11.1 71 71 W 26 43 30.2 1023 9 14.48406 0 0.0254
5:56 am 05:56 Cloudy with Light Snow 19 -7.2 14 -10 81 81 WSW 18 30 30.24 1024 8 12.87472 0 0.0254
6:48 am 06:48 Cloudy with Light Snow 19 -7 14 -10 79 79 W 17 28 30.3 1026 9 14.48406 0 0.0254
6:56 am 06:56 Cloudy with Light Snow 19 -7.2 14 -10 81 81 W 15 24 30.26 1025 9 14.48406 0 0.0254
7:56 am 07:56 Cloudy with Light Snow 19 -7.2 12 -11.1 74 74 W 15 24 30.27 1025 9 14.48406 0 0.0254
8:05 am 08:05 Cloudy with Light Snow 19 -7 12 -11 73 73 WSW 13 20 30.3 1026 9 14.48406 0 0.0254
8:56 am 08:56 Mostly Cloudy 21 -6.1 12 -11.1 68 68 W 21 33 30.27 1025 10 16.0934 0 0.0254
9:07 am 09:07 Partly Cloudy 21 -6 10 -12 63 63 W 20 31 30.33 1027 10 16.0934 0 0
9:56 am 09:56 Mostly Sunny 22 -5.6 12 -11.1 66 66 W 20 31 30.29 1026 10 16.0934 0 0
10:56 am 10:56 Mostly Sunny 23 -5 12 -11.1 63 63 W 20 31 30.29 1026 10 16.0934 0 0
11:56 am 11:56 Mostly Sunny 24 -4.4 12 -11.1 60 60 W 23 37 30.27 1025 10 16.0934 0 0
12:56 pm 12:56 Mostly Cloudy 24 -4.4 13 -10.6 62 62 W 29 46 30.27 1025 10 16.0934 0 0
1:56 pm 13:56 Partly Cloudy 25 -3.9 11 -11.7 55 55 W 22 35 30.27 1025 10 16.0934 0 0
2:56 pm 14:56 Sunny 25 -3.9 9 -12.8 50 50 W 22 35 30.29 1026 10 16.0934 0 0
3:56 pm 15:56 Sunny 22 -5.6 8 -13.3 55 55 W 24 39 30.32 1027 10 16.0934 0 0
4:56 pm 16:56 Sunny 21 -6.1 7 -13.9 54 54 WSW 23 37 30.35 1028 10 16.0934 0 0
5:56 pm 17:56 Clear 19 -7.2 6 -14.4 57 57 W 17 28 30.37 1029 10 16.0934 0 0
6:56 pm 18:56 Clear 19 -7.2 7 -13.9 59 59 W 14 22 30.4 1029 10 16.0934 0 0
7:56 pm 19:56 Clear 19 -7.2 7 -13.9 59 59 W 14 22 30.4 1030 10 16.0934 0 0
8:56 pm 20:56 Clear 18 -7.8 6 -14.4 59 59 W 15 24 30.4 1030 10 16.0934 0 0
9:56 pm 21:56 Clear 18 -7.8 6 -14.4 59 59 W 15 24 30.42 1030 10 16.0934 0 0
10:56 pm 22:56 Clear 17 -8.3 6 -14.4 62 62 W 15 24 30.44 1031 10 16.0934 0 0
11:56 pm 23:56 Mostly Clear 15 -9.4 6 -14.4 67 67 W 10 17 30.45 1031 10 16.0934 0 0

Powered by AerisWeather